Location: Arboyeti
(42.1122°N, 44.6017°E)
Time: 05:35:12
(UTC+00:00)

Cosmos 2266 Rocket - Pass Details

Date: 19 April 2021
Orbit: 935 x 1007 km, 82.9° (Epoch: 09 May)

Event Time Altitude Azimuth Distance (km) Brightness Sun altitude
Rises 18:39:06 0° 348° (NNW) 3,737 8.0 -27.4°
Reaches altitude 10° 18:41:42 10° 344° (NNW) 2,777 7.2 -27.7°
Maximum altitude 18:47:54 56° 268° (W) 1,164 4.5 -28.4°
Enters shadow 18:49:30 44° 221° (SW) 1,331 4.5 -28.6°
